Dewpoint
57 57 57 57 57 57 57 58 58 57 58 58 57 57 57 57 56 51 28 27 36 43 38 33 38 51 62 61 63 61 53 51 52 50 52 55 51 54 51 53 54 54 57 59 62
57 57 57 57 57 57 57 57 57 57 57 56 56 57 57 58 53 36 32 44 42 38 25 26 35 45 61 60 58 55 51 52 57 57 56 58 51 50 48 49 52 55 58 62 62
57 57 56 57 57 57 57 57 56 56 56 56 56 56 58 57 49 42 49 48 40 40 27 30 34 38 57 57 55 56 52 56 58 57 58 58 50 50 49 49 51 54 57 61 62
56 56 56 56 56 56 56 56 56 55 55 56 56 56 58 53 39 43 51 50 43 43 38 39 39 39 54 54 60 52 56 56 58 56 59 56 57 52 50 50 52 55 57 60 60
56 56 55 55 55 54 55 56 56 56 55 55 56 56 53 45 40 54 51 48 45 40 41 40 37 38 54 57 57 54 57 56 58 58 59 58 56 51 51 52 50 54 55 56 56
55 54 54 54 54 54 55 56 55 55 55 55 56 57 50 39 46 52 37 42 43 38 33 35 32 54 57 57 52 55 58 56 57 59 55 56 54 53 52 52 49 53 53 54 54
54 53 53 53 53 54 55 55 54 54 55 56 57 55 48 40 41 41 32 38 38 39 33 32 28 36 58 57 56 58 54 57 57 57 56 56 52 53 53 51 51 51 52 54 55
53 53 53 53 55 55 55 54 54 54 56 58 57 54 41 48 41 35 30 25 26 31 33 27 29 48 52 55 54 52 54 49 53 56 54 52 49 55 56 53 51 52 52 53 53
53 52 52 53 53 55 54 54 54 55 58 56 54 49 41 40 32 34 30 25 20 18 16 17 28 44 51 53 52 53 47 49 51 53 54 53 51 52 55 55 53 52 51 52 53
55 55 53 52 52 53 53 52 54 53 55 54 51 43 42 30 25 29 31 23 17 15 16 17 32 40 41 45 42 48 49 49 49 52 54 51 48 53 54 56 56 52 53 53 53
55 55 54 53 52 52 48 42 40 40 46 32 37 36 34 26 27 27 19 15 16 13 13 15 30 34 37 39 40 48 44 43 47 51 52 52 51 50 49 55 55 55 53 53 55
55 55 55 54 53 51 49 35 39 33 30 36 38 41 36 23 22 24 23 14 10 7 10 12 17 27 34 35 47 45 43 42 46 51 52 53 52 52 53 54 56 55 53 54 55
55 55 54 53 52 48 39 37 40 38 29 30 34 32 25 23 22 24 16 17 12 8 9 11 16 26 29 29 41 46 44 43 42 48 54 53 50 54 56 56 57 56 55 56 55
55 55 54 52 38 38 31 34 31 35 27 29 24 25 24 25 23 24 20 19 21 20 14 10 11 13 27 29 28 30 48 45 49 50 44 50 39 51 54 53 53 55 57 58 55
55 54 53 50 36 26 28 31 30 31 23 29 23 24 24 24 21 20 21 22 20 20 21 20 16 17 26 26 25 25 49 49 51 48 48 49 44 44 54 52 51 53 58 58 56
54 53 52 48 47 36 37 30 32 27 24 22 19 19 20 20 21 20 20 20 20 19 21 20 19 19 27 23 21 22 24 30 47 45 39 44 45 43 49 51 53 56 58 57 56
53 52 51 46 18 35 30 32 29 25 29 19 19 20 19 19 19 18 16 15 16 16 17 18 18 20 19 18 20 21 20 18 19 32 35 43 44 45 50 51 53 55 56 56 55
52 51 50 46 38 35 32 31 27 30 31 26 18 16 19 20 19 19 19 17 18 18 17 17 20 20 18 15 17 14 17 19 24 28 32 42 38 41 51 53 56 56 55 55 55
51 46 44 42 43 37 31 29 29 31 30 15 14 12 14 19 19 19 19 19 20 20 17 18 18 22 18 25 15 20 32 37 39 40 34 39 44 47 49 50 54 56 57 58 58
49 44 38 40 40 32 31 30 30 30 28 26 14 17 18 19 19 18 20 20 21 22 21 21 17 20 32 35 37 33 37 29 35 31 30 37 43 40 42 51 55 56 56 57 59
46 35 34 37 35 33 30 30 30 30 28 22 16 16 18 21 20 20 23 25 23 24 27 25 21 23 35 35 32 31 31 36 38 38 33 34 38 48 47 55 54 56 58 59 60
47 28 35 35 32 33 30 31 30 27 28 24 17 16 15 20 23 24 25 26 23 23 25 26 26 33 34 37 39 38 34 33 29 36 40 38 34 53 54 54 52 52 52 56 62
44 42 39 32 30 30 31 30 30 28 28 27 14 15 16 19 20 23 26 25 26 27 24 24 24 30 30 27 33 31 34 32 34 41 38 34 36 54 55 52 46 48 49 57 62
46 36 38 37 36 34 33 34 33 36 31 27 18 18 20 19 20 18 20 25 25 25 31 24 22 22 21 21 30 31 33 35 35 34 35 38 45 49 52 51 47 44 49 61 62
47 41 43 38 39 37 33 32 31 30 30 28 24 19 19 18 19 20 22 23 28 32 24 21 20 21 21 23 27 31 31 33 35 35 34 37 43 46 48 48 46 52 57 60 60
46 46 47 44 41 37 33 30 29 29 28 30 30 30 19 19 20 19 21 22 23 27 25 28 25 28 25 28 26 27 28 32 38 38 40 43 43 47 49 56 55 55 59 58 58
50 50 49 44 41 38 35 37 35 36 37 36 34 32 30 29 23 22 21 18 17 16 16 25 24 24 23 25 23 21 26 30 36 40 39 35 41 52 51 55 58 58 57 57 58
Wind_Speed
14 14 14 14 14 14 13 13 13 13 13 13 13 14 14 15 17 2 6 7 4 9 2 2 1 12 8 5 7 7 6 5 6 1 3 13 23 12 15 26 20 6 19 26 25
15 15 15 15 15 15 14 14 14 13 13 13 13 13 13 14 4 8 11 9 8 6 3 4 3 10 6 4 4 4 8 10 6 10 4 16 16 24 24 19 19 22 21 27 25
16 16 16 17 16 16 15 15 14 14 13 13 12 12 12 11 3 5 6 14 9 7 5 2 2 3 7 7 2 2 3 7 11 6 12 16 18 17 23 22 28 31 31 31 27
18 18 17 18 18 17 16 15 14 13 13 12 12 12 13 1 3 2 8 11 9 7 4 1 2 5 9 7 3 6 9 16 9 8 4 10 8 20 15 17 22 31 35 30 25
19 20 19 18 18 17 16 15 14 13 12 11 10 9 2 2 6 5 9 9 7 6 6 2 4 3 11 8 5 3 3 15 7 14 16 14 4 9 17 21 21 29 29 29 27
21 21 20 19 18 17 16 15 14 13 11 9 7 6 1 3 3 12 11 8 6 6 1 4 6 13 14 8 3 7 5 15 14 10 11 9 5 8 23 26 21 26 23 18 22
22 22 21 19 17 17 17 16 14 12 9 7 4 2 1 7 4 15 15 7 7 9 5 11 12 8 16 6 4 5 12 16 12 14 8 5 7 13 15 25 23 19 18 16 21
23 22 21 20 19 18 17 16 14 10 7 6 3 1 6 6 8 8 11 7 10 12 14 20 6 6 6 14 6 7 3 3 5 13 4 3 7 3 7 6 21 20 16 18 18
22 23 22 21 20 20 21 18 14 8 3 4 1 1 7 12 4 10 10 10 7 11 9 11 4 6 7 13 6 9 4 5 3 8 6 3 4 10 3 4 7 22 21 20 20
25 23 22 20 20 21 26 12 7 3 4 5 5 6 6 4 5 6 6 9 3 5 5 1 2 2 4 5 8 11 6 3 9 7 2 7 13 11 12 4 4 19 16 17 19
26 25 21 20 17 18 13 3 3 1 3 9 7 5 6 2 3 3 4 2 3 0 4 2 1 9 10 16 15 19 13 11 11 7 8 13 11 17 16 6 2 4 19 20 20
25 25 23 20 15 11 3 3 8 4 12 15 20 12 17 7 3 6 5 3 4 7 2 3 11 20 14 15 25 22 19 10 4 4 3 6 14 18 16 10 9 8 18 17 15
26 25 26 26 21 1 3 11 14 11 6 14 9 8 7 10 8 10 12 2 7 7 9 9 14 10 15 16 19 16 17 14 5 6 4 9 3 13 9 9 13 12 10 10 22
27 26 25 34 3 7 9 8 12 3 4 7 4 8 6 8 4 13 13 7 3 9 10 9 19 15 8 8 2 8 25 23 14 17 7 10 5 10 19 19 12 16 14 11 20
28 26 20 10 9 6 8 24 23 3 4 6 5 6 3 7 8 9 8 3 7 10 2 11 5 12 4 2 3 3 20 25 21 17 5 4 3 4 5 15 24 16 13 13 17
31 24 18 2 2 14 18 24 4 3 3 7 9 9 7 7 4 6 4 2 4 7 9 12 4 4 4 2 5 5 7 8 8 5 2 6 6 5 4 14 10 14 15 17 15
36 28 7 3 6 3 14 7 3 3 6 6 7 7 11 7 9 10 9 7 6 1 3 10 12 7 2 1 4 6 6 4 3 3 4 3 6 6 5 13 13 19 13 18 15
40 35 8 9 10 3 6 4 3 6 9 7 6 7 14 10 15 11 9 9 11 6 3 2 9 6 6 5 4 2 5 4 4 3 4 4 3 2 6 7 8 9 11 3 9
35 6 3 9 15 4 4 3 6 4 3 10 5 2 4 7 7 8 14 14 10 11 4 5 7 10 4 6 4 0 6 4 7 3 1 3 3 3 10 16 16 15 15 14 11
17 10 7 6 17 9 3 6 6 4 14 18 3 4 7 8 9 7 3 5 7 5 7 2 3 5 4 10 16 9 4 2 4 4 3 3 1 5 12 14 15 20 22 27 12
6 8 5 16 9 3 5 8 7 10 10 8 1 5 7 4 3 4 1 9 11 11 14 4 4 8 6 7 4 5 3 7 5 3 5 2 5 6 1 7 13 18 26 29 19
7 6 3 2 8 5 9 5 5 16 26 19 3 5 6 2 4 5 4 5 7 6 4 3 6 5 1 3 3 7 6 5 3 5 2 4 5 4 4 7 14 13 15 24 10
15 7 9 4 10 15 11 15 15 18 19 18 9 7 6 3 2 5 2 5 7 5 5 1 3 5 3 6 3 2 5 5 6 3 8 6 3 4 3 5 9 9 13 15 11
6 8 6 6 5 8 8 6 14 12 18 16 14 5 5 3 3 1 1 7 12 10 11 6 4 6 10 8 5 5 6 8 7 5 5 7 7 6 9 11 10 4 2 8 7
2 3 3 8 11 18 9 6 12 14 12 12 9 10 6 5 2 2 5 4 5 11 7 6 3 4 7 8 9 10 9 13 16 13 6 3 10 19 22 21 11 8 4 10 6
4 5 8 10 8 13 8 6 12 21 13 19 9 20 11 10 9 8 5 5 3 5 3 1 1 3 5 14 11 7 15 19 20 10 6 6 2 8 2 5 10 11 4 3 4
6 6 1 6 6 7 5 12 20 16 5 15 16 12 15 14 16 10 10 10 10 5 2 3 4 2 4 10 11 6 10 8 8 8 11 5 6 11 8 8 9 9 7 6 3
Wind_Direction
339 338 336 334 332 332 330 329 329 332 332 333 335 334 330 327 318 122 257 211 183 202 201 258 241 115 90 97 132 136 105 306 293 310 170 357 110 134 143 134 148 145 149 160 152
339 337 335 333 331 330 329 330 332 334 334 333 332 329 328 333 328 259 238 174 186 197 242 197 166 145 86 93 63 61 138 199 261 287 344 322 163 157 145 158 120 125 130 145 153
341 338 335 332 329 327 328 329 333 331 330 328 327 324 324 324 332 257 255 197 196 201 234 228 242 182 102 110 174 127 131 204 253 282 327 323 149 142 143 141 147 146 149 161 163
341 338 334 331 328 327 326 325 324 325 324 322 322 321 318 324 135 208 137 153 186 208 218 234 277 142 119 118 180 322 190 193 166 260 307 293 306 157 180 163 151 150 155 162 164
341 338 335 331 328 327 324 321 321 320 318 317 317 323 352 350 257 172 147 157 176 187 212 223 313 165 122 117 159 201 291 179 189 185 225 258 277 121 145 148 143 151 160 165 167
343 339 336 332 329 327 322 318 315 313 311 310 308 319 30 344 173 153 154 158 196 197 221 200 240 71 112 158 163 146 170 155 173 203 247 326 338 137 144 150 153 147 164 163 150
343 340 338 333 329 323 317 311 308 307 302 294 281 277 308 246 216 169 166 197 196 196 229 249 255 230 135 188 131 76 129 124 155 128 257 289 55 76 154 156 162 152 154 149 146
344 340 337 331 327 322 312 304 299 294 287 267 206 206 260 250 204 192 195 250 243 240 238 264 294 126 112 121 55 81 36 165 190 158 251 53 131 114 28 222 154 162 148 136 155
342 342 338 332 329 324 314 302 286 265 232 142 136 76 289 314 208 243 196 229 264 250 251 283 358 114 133 121 81 40 213 198 207 163 151 120 146 221 341 184 167 164 170 161 160
337 335 338 334 331 328 318 295 153 292 189 199 262 311 265 214 197 218 242 221 209 249 304 228 44 159 140 180 210 170 200 148 158 199 157 162 200 247 210 59 49 177 154 179 173
338 335 333 331 330 332 349 0 353 329 187 220 237 246 271 176 152 162 215 318 291 30 227 270 222 228 240 243 238 139 150 148 198 175 158 199 202 208 225 189 281 212 179 184 180
336 332 330 324 318 319 321 282 244 79 307 244 242 242 269 156 183 250 177 195 194 223 238 316 249 249 259 257 148 152 159 171 263 124 143 187 221 219 220 224 222 202 184 187 179
334 333 332 326 320 140 265 265 273 342 278 295 215 223 199 160 207 219 170 195 238 249 242 227 249 253 254 275 143 162 176 174 192 150 231 150 220 224 253 228 192 200 175 185 187
333 332 334 329 320 331 280 278 322 224 322 277 203 228 200 156 237 210 190 190 220 257 268 257 262 257 291 186 144 168 197 182 173 160 215 188 252 212 217 235 203 218 174 201 191
329 329 333 318 299 288 283 328 330 70 8 203 210 170 199 167 157 209 195 162 275 286 294 281 307 323 181 186 324 240 171 178 176 176 143 211 295 259 193 235 237 204 196 194 202
325 325 330 67 236 249 308 315 11 74 253 191 165 187 176 186 216 157 167 185 243 289 300 275 266 252 180 106 24 148 138 155 151 165 234 293 213 295 218 246 252 238 186 199 190
323 316 284 268 246 305 336 353 29 213 305 180 195 181 197 209 196 179 182 203 214 187 283 317 283 246 167 298 9 30 34 338 260 83 253 237 178 266 324 274 261 233 195 198 209
324 316 221 219 243 339 13 55 263 271 285 281 166 191 195 203 207 196 188 226 240 205 281 326 337 183 192 186 207 191 146 201 206 217 285 314 277 269 343 45 8 279 278 213 240
324 326 249 254 214 139 84 180 225 241 328 337 356 321 303 198 148 185 204 219 239 179 181 29 330 345 146 71 133 233 72 128 104 43 287 295 298 337 354 7 1 353 348 289 217
330 330 267 171 141 120 119 235 242 256 331 330 33 51 334 227 175 179 230 153 110 126 102 26 318 20 155 72 42 86 128 145 64 176 248 276 223 279 316 343 10 348 341 331 239
347 339 287 144 118 81 215 237 288 288 310 304 236 337 332 329 221 171 114 43 101 92 84 80 60 337 43 29 116 42 64 73 113 145 192 243 255 232 129 83 37 14 351 318 278
2 325 232 76 169 207 241 235 271 297 311 304 228 213 275 335 16 43 82 113 104 96 77 0 105 58 142 275 257 114 137 122 182 212 148 154 269 87 113 127 57 29 336 346 334
339 285 321 106 221 240 257 271 276 285 292 307 245 217 222 153 90 78 139 148 96 98 135 64 65 125 316 308 284 159 176 142 124 124 199 184 262 12 338 355 4 325 334 351 354
341 335 327 28 75 32 353 328 331 312 288 288 255 233 129 122 133 234 116 169 155 150 144 111 142 174 181 241 261 256 188 200 160 186 224 207 165 219 210 219 227 222 228 63 34
225 290 23 327 334 338 334 290 331 331 331 321 303 178 167 179 252 286 344 141 34 152 155 140 217 208 264 262 275 256 252 203 200 208 175 219 176 210 202 201 210 306 339 112 74
331 4 339 301 302 341 330 303 326 332 335 328 327 328 192 193 194 230 162 108 123 212 107 80 103 64 341 12 357 275 271 220 211 181 132 136 208 235 239 212 249 286 268 2 78
331 339 308 284 312 328 275 339 318 346 301 327 326 346 322 303 235 157 162 147 153 145 112 135 133 83 294 350 348 316 348 206 170 116 137 195 200 156 186 191 202 220 267 299 302